This demonstration page uses our WeatherBlox Daily Observations layout. Learn more.

Left ArrowRight Arrow

34.16533, -84.80231

Hourly Observations for January 27, 2020

Temp ( °F °C ) Dew Point ( °F °C ) Humidity (%) Winds ( mph kmh ) Pressure ( in mb ) Visibility ( mi km ) Precip ( " mm )
12:53 am 00:53 Cloudy 44 6.7 39 3.9 83 83 Calm 29.98 1015 10 16 0.00 0.00
1:53 am 01:53 Cloudy 44 6.7 40 4.4 85 85 Calm 29.96 1015 10 16 0.00 0.00
2:53 am 02:53 Cloudy with Light Rain 44 6.7 40 4.4 85 85 Calm 29.96 1015 10 16 0.01 0.25
3:33 am 03:33 Cloudy with Light Rain 43 6.1 41 5 93 93 Calm 30.00 1016 4 6 0.03 0.76
3:53 am 03:53 Cloudy with Light Rain 43 6.1 41 5 93 93 SSE 3 6 29.96 1014 5 8 0.05 1.27
4:03 am 04:03 Cloudy with Light Rain 43 6.1 41 5 93 93 Calm 29.99 1016 6 10 0.01 0.25
4:53 am 04:53 Cloudy 43 6.1 41 5 93 93 Calm 29.95 1014 7 11 0.02 0.51
5:53 am 05:53 Cloudy 43 6.1 41 5 93 93 Calm 29.95 1014 7 11 0.00 0.00
6:20 am 06:20 Cloudy with Mist and Fog 43 6.1 41 5 93 93 Calm 29.97 1015 6 10 0.00 0.00
6:53 am 06:53 Cloudy with Mist and Fog 43 6.1 41 5 93 93 Calm 29.95 1014 6 10 0.00 0.00
7:08 am 07:08 Cloudy with Mist and Fog 43 6.1 41 5 93 93 Calm 29.99 1016 6 10 0.00 0.00
7:53 am 07:53 Cloudy with Mist and Fog 44 6.7 42 5.6 93 93 Calm 29.96 1015 6 10 0.00 0.00
8:10 am 08:10 Cloudy 44 6.7 42 5.6 93 93 Calm 30.00 1016 7 11 0.00 0.00
8:53 am 08:53 Cloudy 45 7.2 42 5.6 90 90 Calm 29.97 1015 7 11 0.00 0.00
9:53 am 09:53 Cloudy 46 7.8 43 6.1 89 89 Calm 29.98 1015 10 16 0.00 0.00
10:53 am 10:53 Cloudy 48 8.9 45 7.2 89 89 VRB 3 6 29.98 1015 10 16 0.00 0.00
11:53 am 11:53 Cloudy 49 9.4 45 7.2 86 86 VRB 3 6 29.98 1015 10 16 0.00 0.00
12:06 pm 12:06 Cloudy 50 10 45 7.2 83 83 Calm 30.00 1016 10 16 0.00 0.00
12:16 pm 12:16 Cloudy 50 10 45 7.2 83 83 Calm 29.99 1016 10 16 0.00 0.00
12:53 pm 12:53 Cloudy 50 10 45 7.2 83 83 VRB 5 7 29.95 1014 10 16 0.00 0.00
1:00 pm 13:00 Cloudy 50 10 45 7.2 83 83 VRB 5 7 29.97 1015 10 16 0.00 0.00
1:44 pm 13:44 Cloudy 50 10 45 7.2 83 83 VRB 3 6 29.95 1014 10 16 0.00 0.00
1:53 pm 13:53 Cloudy 50 10 45 7.2 83 83 VRB 3 6 29.93 1013 10 16 0.00 0.00
2:53 pm 14:53 Cloudy 51 10.6 45 7.2 80 80 Calm 29.92 1013 10 16 0.00 0.00
3:02 pm 15:02 Cloudy 51 10.6 45 7.2 80 80 Calm 29.94 1014 10 16 0.00 0.00
3:53 pm 15:53 Mostly Cloudy 52 11.1 44 6.7 75 75 Calm 29.92 1013 10 16 0.00 0.00
4:53 pm 16:53 Mostly Cloudy 53 11.7 44 6.7 72 72 Calm 29.93 1014 10 16 0.00 0.00
5:53 pm 17:53 Mostly Sunny 50 10 43 6.1 77 77 Calm 29.93 1014 10 16 0.00 0.00
6:53 pm 18:53 Clear 43 6.1 41 5 93 93 Calm 29.95 1014 10 16 0.00 0.00
7:53 pm 19:53 Clear 43 6.1 40 4.4 89 89 Calm 29.97 1015 10 16 0.00 0.00
8:53 pm 20:53 Clear 42 5.6 39 3.9 89 89 Calm 29.98 1015 8 13 0.00 0.00
9:53 pm 21:53 Clear 40 4.4 38 3.3 93 93 Calm 29.99 1016 9 14 0.00 0.00
10:53 pm 22:53 Clear 37 2.8 35 1.7 93 93 Calm 30.01 1016 7 11 0.00 0.00
11:53 pm 23:53 Clear with Mist and Fog 36 2.2 34 1.1 93 93 Calm 30.01 1016 6 10 0.00 0.00

Powered by AerisWeather